Location: Unspecified
(54.1780°N, 0.0000°E)
Time: 01:17:55
(UTC+00:00)

Altair - Pass Details

Date: 21 June 2019
Orbit: 1501 x 1683 km, 47.2° (Epoch: 16 August)

Event Time Altitude Azimuth Distance (km) Brightness Sun altitude
Rises 03:32:09 0° 285° (WNW) 4,884 9.8 -0.2°
Reaches altitude 10° 03:36:37 10° 268° (W) 3,917 9.2 0.3°
Maximum altitude 03:42:36 18° 230° (SW) 3,342 8.7 0.9°
Drops below altitude 10° 03:48:38 10° 193° (SSW) 3,939 9.2 1.6°
Sets 03:53:11 0° 176° (S) 4,921 9.8 2.1°
